Terug naar catalogus

COSMOS 2299

ActiefMilitairPO
NORAD 23441·PAYLOAD·🇷🇺 Russia

Gelanceerd Dec 26, 1994 vanaf Plesetsk Cosmodrome

Loading…

Volgende Passages (komende 24 uur)

TLE

VersSource: Space-Track

Epoch: Sep 14, 2026, 07:50 UTC

1 23441U 94086A   26257.32675082 -.00000002  00000-0 -66844-4 0  9992
2 23441  82.5652 239.7576 0007455   7.9628 352.1581 12.63800564462963

Volg COSMOS 2299 in realtime met AllMySat

Download on the App Store